TKJ4116 LTAC-LTCJ

Flight info

Callsign TKJ4116
Flight time 1h 15m
Altitude 33000
Route BALAX UL605 BADOX UW705 GEM UL614 EZS UW104 ZUITA
Aircraft B738/M-SDE2E3FGHIRWXY/LB1

Departure

Time 2026-04-30 11:49
Airport Esenboğa International Airport (LTAC)

Arrival

Time 2026-04-30 13:05
Airport Batman Airport (LTCJ)
Time Latitude Longitude Altitude Speed Heading
2026-04-30 11:09 40.11654 32.99234 3125 ft 0 kts 154°
2026-04-30 11:16 40.11658 32.99231 3124 ft 3 kts 154°
2026-04-30 11:16 40.11677 32.99219 3124 ft 3 kts 154°
2026-04-30 11:17 40.11695 32.99208 3125 ft 3 kts 154°
2026-04-30 11:17 40.11713 32.99194 3125 ft 3 kts 130°
2026-04-30 11:17 40.11721 32.99170 3125 ft 3 kts 89°
2026-04-30 11:17 40.11715 32.99145 3125 ft 3 kts 61°
2026-04-30 11:18 40.11705 32.99122 3125 ft 3 kts 61°
2026-04-30 11:18 40.11699 32.99107 3125 ft 0 kts 61°
2026-04-30 11:19 40.11701 32.99111 3125 ft 2 kts 58°
2026-04-30 11:19 40.11721 32.99121 3125 ft 5 kts
2026-04-30 11:19 40.11765 32.99096 3126 ft 9 kts 319°
2026-04-30 11:20 40.11796 32.99057 3124 ft 10 kts 325°
2026-04-30 11:20 40.11891 32.99084 3126 ft 14 kts 35°
2026-04-30 11:20 40.11986 32.99173 3124 ft 19 kts 36°
2026-04-30 11:20 40.12104 32.99285 3123 ft 24 kts 37°
2026-04-30 11:21 40.12199 32.99377 3124 ft 26 kts 36°
2026-04-30 11:21 40.12348 32.99519 3123 ft 27 kts 36°
2026-04-30 11:21 40.12475 32.99636 3126 ft 9 kts 35°
2026-04-30 11:21 40.12499 32.99657 3125 ft 0 kts 34°
2026-04-30 11:41 40.12507 32.99665 3128 ft 5 kts 34°
2026-04-30 11:41 40.12548 32.99701 3124 ft 8 kts 34°
2026-04-30 11:41 40.12591 32.99741 3126 ft 8 kts 35°
2026-04-30 11:42 40.12634 32.99779 3129 ft 7 kts 34°
2026-04-30 11:42 40.12674 32.99816 3130 ft 7 kts 34°
2026-04-30 11:42 40.12705 32.99860 3129 ft 7 kts 83°
2026-04-30 11:42 40.12743 32.99896 3128 ft 7 kts 21°
2026-04-30 11:43 40.12789 32.99920 3127 ft 7 kts 21°
2026-04-30 11:43 40.12831 32.99948 3126 ft 7 kts 29°
2026-04-30 11:43 40.12867 32.99987 3127 ft 7 kts 40°
2026-04-30 11:43 40.12902 33.00026 3125 ft 7 kts 40°
2026-04-30 11:44 40.12936 33.00064 3125 ft 6 kts 40°
2026-04-30 11:44 40.12970 33.00100 3125 ft 6 kts 39°
2026-04-30 11:44 40.13004 33.00136 3124 ft 6 kts 39°
2026-04-30 11:44 40.13037 33.00171 3123 ft 6 kts 39°
2026-04-30 11:45 40.13069 33.00205 3126 ft 6 kts 38°
2026-04-30 11:45 40.13102 33.00238 3127 ft 6 kts 38°
2026-04-30 11:45 40.13134 33.00271 3126 ft 6 kts 38°
2026-04-30 11:45 40.13169 33.00306 3129 ft 8 kts 37°
2026-04-30 11:46 40.13240 33.00374 3130 ft 16 kts 36°
2026-04-30 11:46 40.13345 33.00473 3133 ft 20 kts 36°
2026-04-30 11:46 40.13462 33.00583 3131 ft 21 kts 36°
2026-04-30 11:46 40.13578 33.00693 3131 ft 20 kts 36°
2026-04-30 11:47 40.13688 33.00798 3128 ft 20 kts 36°
2026-04-30 11:47 40.13796 33.00902 3126 ft 19 kts 37°
2026-04-30 11:47 40.13899 33.01003 3124 ft 18 kts 37°
2026-04-30 11:47 40.14013 33.01067 3130 ft 18 kts
2026-04-30 11:48 40.14101 33.00983 3131 ft 17 kts 283°
2026-04-30 11:48 40.14159 33.00852 3126 ft 16 kts 304°
2026-04-30 11:48 40.14209 33.00724 3126 ft 16 kts 269°
2026-04-30 11:48 40.14053 33.00536 3121 ft 65 kts 216°
2026-04-30 11:49 40.13486 32.99991 3127 ft 135 kts 216°
2026-04-30 11:49 40.12627 32.99037 3212 ft 186 kts 226°
2026-04-30 11:49 40.11623 32.97885 3880 ft 198 kts 217°
2026-04-30 11:49 40.10485 32.96858 4678 ft 196 kts 215°
2026-04-30 11:50 40.09286 32.95841 5131 ft 217 kts 215°
2026-04-30 11:50 40.07967 32.94687 5405 ft 235 kts 216°
2026-04-30 11:50 40.06595 32.93443 5923 ft 245 kts 217°
2026-04-30 11:50 40.05154 32.92105 6310 ft 263 kts 217°
2026-04-30 11:51 40.03636 32.90686 6965 ft 271 kts 217°
2026-04-30 11:51 40.02025 32.89429 7910 ft 272 kts 201°
2026-04-30 11:51 40.00130 32.89187 8703 ft 282 kts 173°
2026-04-30 11:51 39.98268 32.90056 9556 ft 287 kts 152°
2026-04-30 11:52 39.96592 32.91507 10317 ft 294 kts 148°
2026-04-30 11:52 39.94858 32.93107 10575 ft 318 kts 147°
2026-04-30 11:52 39.92981 32.94826 10767 ft 341 kts 148°
2026-04-30 11:52 39.90977 32.96612 11170 ft 354 kts 152°
2026-04-30 11:53 39.88722 32.97721 11852 ft 351 kts 173°
2026-04-30 11:53 39.86298 32.97790 12616 ft 349 kts 187°
2026-04-30 11:53 39.83856 32.97538 13263 ft 355 kts 187°
2026-04-30 11:53 39.81370 32.97363 13918 ft 361 kts 180°
2026-04-30 11:54 39.78919 32.98168 14556 ft 371 kts 156°
2026-04-30 11:54 39.76800 33.00131 15192 ft 381 kts 136°
2026-04-30 11:54 39.75199 33.02927 15782 ft 389 kts 125°
2026-04-30 11:54 39.73746 33.05918 16342 ft 394 kts 124°
2026-04-30 11:55 39.72271 33.08949 16919 ft 399 kts 125°
2026-04-30 11:55 39.70753 33.11994 17505 ft 403 kts 126°
2026-04-30 11:55 39.69206 33.15048 18065 ft 407 kts 126°
2026-04-30 11:55 39.67642 33.18121 18602 ft 410 kts 126°
2026-04-30 11:56 39.66060 33.21224 19115 ft 414 kts 126°
2026-04-30 11:56 39.64464 33.24356 19622 ft 418 kts 126°
2026-04-30 11:56 39.62878 33.27467 20129 ft 420 kts 126°
2026-04-30 11:56 39.61256 33.30649 20629 ft 423 kts 126°
2026-04-30 11:57 39.59623 33.33849 21111 ft 427 kts 126°
2026-04-30 11:57 39.57977 33.37072 21581 ft 430 kts 126°
2026-04-30 11:57 39.56448 33.40429 22021 ft 436 kts 116°
2026-04-30 11:57 39.55336 33.44108 22499 ft 440 kts 111°
2026-04-30 11:58 39.54321 33.47884 22968 ft 443 kts 110°
2026-04-30 11:58 39.53312 33.51680 23412 ft 447 kts 110°
2026-04-30 11:58 39.52276 33.55485 23819 ft 450 kts 111°
2026-04-30 11:58 39.51217 33.59267 24177 ft 452 kts 111°
2026-04-30 11:59 39.50127 33.63092 24574 ft 454 kts 112°
2026-04-30 11:59 39.49022 33.66929 24955 ft 456 kts 112°
2026-04-30 11:59 39.47912 33.70777 25326 ft 458 kts 112°
2026-04-30 11:59 39.46796 33.74645 25670 ft 460 kts 112°
2026-04-30 12:00 39.45544 33.78461 25999 ft 461 kts 122°
2026-04-30 12:00 39.43636 33.81762 26347 ft 458 kts 134°
2026-04-30 12:00 39.41519 33.84848 26724 ft 459 kts 134°
2026-04-30 12:00 39.39406 33.87966 27055 ft 462 kts 133°
2026-04-30 12:01 39.37317 33.91139 27351 ft 464 kts 133°
2026-04-30 12:01 39.35354 33.94400 27636 ft 469 kts 124°
2026-04-30 12:01 39.33830 33.98145 27934 ft 474 kts 114°
2026-04-30 12:01 39.32798 34.02205 28250 ft 478 kts 104°
2026-04-30 12:02 39.32311 34.06462 28556 ft 480 kts 97°
2026-04-30 12:02 39.31992 34.10760 28873 ft 482 kts 96°
2026-04-30 12:02 39.31713 34.14929 29268 ft 481 kts 96°
2026-04-30 12:02 39.31422 34.19220 29753 ft 479 kts 96°
2026-04-30 12:03 39.31117 34.23498 30174 ft 477 kts 96°
2026-04-30 12:03 39.30460 34.32029 30742 ft 478 kts 97°
2026-04-30 12:03 39.30116 34.36298 31057 ft 478 kts 97°
2026-04-30 12:04 39.29768 34.40561 31387 ft 477 kts 97°
2026-04-30 12:04 39.29419 34.44806 31693 ft 476 kts 97°
2026-04-30 12:04 39.29067 34.49060 31977 ft 476 kts 97°
2026-04-30 12:04 39.28716 34.53306 32281 ft 476 kts 97°
2026-04-30 12:05 39.28364 34.57545 32619 ft 474 kts 97°
2026-04-30 12:05 39.28013 34.61770 32939 ft 473 kts 97°
2026-04-30 12:05 39.27658 34.66010 33031 ft 477 kts 97°
2026-04-30 12:06 39.26940 34.74541 33035 ft 478 kts 97°
2026-04-30 12:06 39.26221 34.83026 33021 ft 472 kts 97°
2026-04-30 12:07 39.25501 34.91436 33041 ft 472 kts 97°
2026-04-30 12:07 39.24778 34.99808 33043 ft 473 kts 97°
2026-04-30 12:08 39.24043 35.08246 33043 ft 473 kts 97°
2026-04-30 12:08 39.23301 35.16695 33047 ft 474 kts 97°
2026-04-30 12:09 39.22554 35.25144 33050 ft 474 kts 97°
2026-04-30 12:09 39.21800 35.33594 33050 ft 474 kts 98°
2026-04-30 12:10 39.21169 35.40631 33054 ft 474 kts 98°
2026-04-30 12:10 39.20405 35.49080 33049 ft 474 kts 98°
2026-04-30 12:11 39.19512 35.58886 33058 ft 474 kts 98°
2026-04-30 12:11 39.18864 35.65948 33059 ft 473 kts 98°
2026-04-30 12:12 39.18084 35.74373 33056 ft 473 kts 98°
2026-04-30 12:12 39.17305 35.82733 33054 ft 472 kts 98°
2026-04-30 12:13 39.16515 35.91134 33050 ft 472 kts 98°
2026-04-30 12:13 39.15723 35.99514 33057 ft 471 kts 98°
2026-04-30 12:14 39.14858 36.07882 33044 ft 471 kts 100°
2026-04-30 12:14 39.13787 36.16185 33058 ft 470 kts 101°
2026-04-30 12:15 39.12685 36.24489 33048 ft 470 kts 101°
2026-04-30 12:15 39.11605 36.32783 33048 ft 470 kts 101°
2026-04-30 12:16 39.10534 36.41085 33049 ft 470 kts 101°
2026-04-30 12:16 39.09461 36.49392 33047 ft 470 kts 101°
2026-04-30 12:17 39.07849 36.61781 33053 ft 470 kts 101°
2026-04-30 12:17 39.06762 36.70069 33053 ft 470 kts 101°
2026-04-30 12:18 39.05661 36.78410 33048 ft 470 kts 101°
2026-04-30 12:18 39.04563 36.86684 33045 ft 469 kts 101°
2026-04-30 12:19 39.03464 36.94914 33044 ft 469 kts 101°
2026-04-30 12:19 39.02353 37.03190 33043 ft 469 kts 101°
2026-04-30 12:20 39.01237 37.11463 33041 ft 469 kts 101°
2026-04-30 12:20 39.00114 37.19736 33036 ft 469 kts 101°
2026-04-30 12:21 38.98987 37.27998 33029 ft 469 kts 101°
2026-04-30 12:21 38.97853 37.36260 33030 ft 469 kts 101°
2026-04-30 12:22 38.96715 37.44515 33031 ft 469 kts 101°
2026-04-30 12:22 38.95578 37.52712 33017 ft 469 kts 101°
2026-04-30 12:23 38.94426 37.60972 33021 ft 470 kts 101°
2026-04-30 12:23 38.93269 37.69227 33020 ft 470 kts 101°
2026-04-30 12:24 38.92104 37.77490 33019 ft 470 kts 101°
2026-04-30 12:24 38.90934 37.85745 33013 ft 469 kts 101°
2026-04-30 12:25 38.89768 37.93936 32629 ft 460 kts 101°
2026-04-30 12:25 38.89197 37.97935 32367 ft 451 kts 101°
2026-04-30 12:25 38.88633 38.01873 32100 ft 446 kts 102°
2026-04-30 12:26 38.88072 38.05772 31844 ft 443 kts 101°
2026-04-30 12:26 38.87514 38.09647 31593 ft 440 kts 101°
2026-04-30 12:26 38.86957 38.13501 31334 ft 438 kts 101°
2026-04-30 12:26 38.86402 38.17330 31076 ft 436 kts 101°
2026-04-30 12:27 38.85856 38.21097 30828 ft 434 kts 101°
2026-04-30 12:27 38.85302 38.24901 30593 ft 433 kts 101°
2026-04-30 12:27 38.84749 38.28692 30350 ft 432 kts 101°
2026-04-30 12:27 38.84197 38.32472 30107 ft 431 kts 101°
2026-04-30 12:28 38.83644 38.36245 29832 ft 430 kts 101°
2026-04-30 12:28 38.83091 38.40011 29548 ft 429 kts 101°
2026-04-30 12:28 38.82538 38.43768 29265 ft 429 kts 101°
2026-04-30 12:28 38.81984 38.47524 29000 ft 428 kts 101°
2026-04-30 12:29 38.81429 38.51276 28720 ft 427 kts 101°
2026-04-30 12:29 38.80875 38.55014 28452 ft 426 kts 101°
2026-04-30 12:29 38.80329 38.58694 28182 ft 424 kts 102°
2026-04-30 12:29 38.79777 38.62399 27916 ft 423 kts 102°
2026-04-30 12:30 38.79225 38.66098 27652 ft 421 kts 102°
2026-04-30 12:30 38.78676 38.69769 27393 ft 419 kts 102°
2026-04-30 12:30 38.78128 38.73425 27125 ft 417 kts 102°
2026-04-30 12:30 38.77583 38.77057 26858 ft 414 kts 102°
2026-04-30 12:31 38.77038 38.80679 26621 ft 412 kts 102°
2026-04-30 12:31 38.76497 38.84273 26362 ft 410 kts 102°
2026-04-30 12:31 38.75955 38.87853 26116 ft 409 kts 102°
2026-04-30 12:31 38.75416 38.91422 25862 ft 407 kts 102°
2026-04-30 12:32 38.74887 38.94976 25617 ft 405 kts 101°
2026-04-30 12:32 38.74364 38.98514 25381 ft 404 kts 101°
2026-04-30 12:32 38.73841 39.02047 25131 ft 402 kts 101°
2026-04-30 12:32 38.73318 39.05568 24894 ft 401 kts 101°
2026-04-30 12:33 38.72799 39.09061 24664 ft 400 kts 101°
2026-04-30 12:33 38.72277 39.12556 24430 ft 399 kts 101°
2026-04-30 12:33 38.71756 39.16038 24196 ft 398 kts 101°
2026-04-30 12:33 38.71134 39.19480 23946 ft 396 kts 110°
2026-04-30 12:34 38.69978 39.22651 23728 ft 392 kts 123°
2026-04-30 12:34 38.68386 39.25394 23468 ft 387 kts 137°
2026-04-30 12:34 38.66446 39.27762 23218 ft 384 kts 140°
2026-04-30 12:34 38.64470 39.30053 22938 ft 383 kts 141°
2026-04-30 12:35 38.62499 39.32333 22671 ft 381 kts 140°
2026-04-30 12:35 38.60541 39.34621 22400 ft 380 kts 140°
2026-04-30 12:35 38.58601 39.36908 22135 ft 378 kts 140°
2026-04-30 12:35 38.56669 39.39198 21716 ft 380 kts 140°
2026-04-30 12:36 38.54730 39.41499 21326 ft 380 kts 140°
2026-04-30 12:36 38.52801 39.43789 20948 ft 377 kts 139°
2026-04-30 12:36 38.50886 39.46068 20565 ft 375 kts 139°
2026-04-30 12:36 38.48986 39.48330 20196 ft 372 kts 139°
2026-04-30 12:37 38.47097 39.50579 19834 ft 370 kts 139°
2026-04-30 12:37 38.45220 39.52811 19473 ft 368 kts 139°
2026-04-30 12:37 38.43352 39.55033 19123 ft 366 kts 139°
2026-04-30 12:37 38.41520 39.57209 18765 ft 364 kts 139°
2026-04-30 12:38 38.39650 39.59428 18419 ft 362 kts 139°
2026-04-30 12:38 38.37812 39.61606 18033 ft 360 kts 139°
2026-04-30 12:38 38.36009 39.63743 17645 ft 358 kts 139°
2026-04-30 12:38 38.34184 39.65902 17252 ft 356 kts 139°
2026-04-30 12:39 38.32371 39.68046 16861 ft 354 kts 139°
2026-04-30 12:39 38.30570 39.70176 16475 ft 352 kts 139°
2026-04-30 12:39 38.28775 39.72296 16084 ft 350 kts 139°
2026-04-30 12:39 38.26994 39.74400 15724 ft 349 kts 139°
2026-04-30 12:40 38.25221 39.76493 15350 ft 345 kts 139°
2026-04-30 12:40 38.23476 39.78552 15035 ft 339 kts 139°
2026-04-30 12:40 38.21768 39.80566 14777 ft 331 kts 139°
2026-04-30 12:40 38.20098 39.82533 14529 ft 324 kts 139°
2026-04-30 12:41 38.18464 39.84457 14282 ft 318 kts 139°
2026-04-30 12:41 38.16872 39.86330 14045 ft 313 kts 139°
2026-04-30 12:41 38.15281 39.88202 13800 ft 309 kts 139°
2026-04-30 12:41 38.13707 39.90051 13548 ft 307 kts 139°
2026-04-30 12:42 38.12140 39.91891 13278 ft 305 kts 139°
2026-04-30 12:42 38.10584 39.93716 13009 ft 304 kts 139°
2026-04-30 12:42 38.09037 39.95531 12749 ft 302 kts 139°
2026-04-30 12:42 38.07497 39.97336 12490 ft 301 kts 139°
2026-04-30 12:43 38.05965 39.99132 12251 ft 300 kts 139°
2026-04-30 12:43 38.04426 40.00934 12023 ft 302 kts 139°
2026-04-30 12:43 38.02896 40.02722 11754 ft 302 kts 139°
2026-04-30 12:43 38.01352 40.04527 11557 ft 302 kts 139°
2026-04-30 12:44 37.99797 40.06345 11293 ft 305 kts 139°
2026-04-30 12:44 37.98242 40.08162 11029 ft 303 kts 139°
2026-04-30 12:44 37.96702 40.09960 10751 ft 298 kts 139°
2026-04-30 12:44 37.95190 40.11725 10537 ft 293 kts 139°
2026-04-30 12:45 37.93697 40.13466 10267 ft 290 kts 139°
2026-04-30 12:45 37.92219 40.15189 10030 ft 288 kts 139°
2026-04-30 12:45 37.90745 40.16905 9778 ft 288 kts 139°
2026-04-30 12:45 37.89495 40.18880 9494 ft 291 kts 116°
2026-04-30 12:46 37.89033 40.21359 9241 ft 291 kts 89°
2026-04-30 12:46 37.89445 40.23815 8991 ft 284 kts 67°
2026-04-30 12:46 37.90247 40.26068 8741 ft 278 kts 64°
2026-04-30 12:46 37.91088 40.28253 8483 ft 275 kts 63°
2026-04-30 12:47 37.91924 40.30406 8235 ft 271 kts 63°
2026-04-30 12:47 37.92754 40.32533 7974 ft 269 kts 63°
2026-04-30 12:47 37.93585 40.34654 7746 ft 269 kts 63°
2026-04-30 12:47 37.94420 40.36783 7492 ft 269 kts 63°
2026-04-30 12:48 37.95249 40.38901 7241 ft 268 kts 63°
2026-04-30 12:48 37.96079 40.41010 7007 ft 267 kts 63°
2026-04-30 12:48 37.96903 40.43105 6875 ft 265 kts 63°
2026-04-30 12:48 37.97722 40.45189 6769 ft 262 kts 63°
2026-04-30 12:49 37.98524 40.47214 6700 ft 260 kts 63°
2026-04-30 12:49 37.99341 40.49272 6631 ft 263 kts 62°
2026-04-30 12:49 38.00160 40.51347 6525 ft 263 kts 63°
2026-04-30 12:49 38.00975 40.53423 6420 ft 264 kts 63°
2026-04-30 12:50 38.01798 40.55505 6294 ft 264 kts 63°
2026-04-30 12:50 38.02623 40.57590 6207 ft 264 kts 63°
2026-04-30 12:50 38.03441 40.59677 6075 ft 263 kts 63°
2026-04-30 12:50 38.04259 40.61760 5990 ft 265 kts 63°
2026-04-30 12:51 38.05077 40.63839 5906 ft 261 kts 63°
2026-04-30 12:51 38.05883 40.65878 5782 ft 257 kts 63°
2026-04-30 12:51 38.06675 40.67881 5672 ft 251 kts 63°
2026-04-30 12:51 38.07462 40.69872 5570 ft 255 kts 63°
2026-04-30 12:52 38.08273 40.71913 5466 ft 261 kts 63°
2026-04-30 12:52 38.09097 40.73979 5359 ft 263 kts 63°
2026-04-30 12:52 38.09920 40.76048 5268 ft 264 kts 63°
2026-04-30 12:52 38.10752 40.78137 5176 ft 265 kts 63°
2026-04-30 12:53 38.11579 40.80205 5100 ft 261 kts 63°
2026-04-30 12:53 38.12393 40.82247 5017 ft 257 kts 63°
2026-04-30 12:53 38.13193 40.84238 4942 ft 250 kts 63°
2026-04-30 12:53 38.13975 40.86183 4859 ft 245 kts 63°
2026-04-30 12:54 38.14747 40.88091 4771 ft 242 kts 63°
2026-04-30 12:54 38.15516 40.90002 4732 ft 244 kts 63°
2026-04-30 12:54 38.16277 40.91905 4939 ft 242 kts 62°
2026-04-30 12:54 38.17040 40.93810 5133 ft 237 kts 62°
2026-04-30 12:55 38.17791 40.95693 5222 ft 243 kts 63°
2026-04-30 12:55 38.18557 40.97625 5204 ft 244 kts 63°
2026-04-30 12:55 38.19318 40.99538 5197 ft 240 kts 63°
2026-04-30 12:55 38.20053 41.01392 5201 ft 231 kts 63°
2026-04-30 12:56 38.20758 41.03156 5189 ft 222 kts 63°
2026-04-30 12:56 38.21454 41.04895 5091 ft 222 kts 64°
2026-04-30 12:56 38.22170 41.06662 4927 ft 227 kts 63°
2026-04-30 12:56 38.22785 41.08506 4767 ft 226 kts 73°
2026-04-30 12:57 38.23010 41.10486 4578 ft 228 kts 91°
2026-04-30 12:57 38.22982 41.12483 4404 ft 224 kts 93°
2026-04-30 12:57 38.22752 41.14432 4259 ft 222 kts 103°
2026-04-30 12:57 38.22406 41.16280 4104 ft 203 kts 112°
2026-04-30 12:58 38.21750 41.17765 3863 ft 186 kts 126°
2026-04-30 12:58 38.20991 41.19067 3705 ft 180 kts 139°
2026-04-30 12:58 38.20010 41.19999 3521 ft 173 kts 151°
2026-04-30 12:58 38.19313 41.20485 3397 ft 171 kts 156°
2026-04-30 12:59 38.18196 41.20985 3222 ft 173 kts 167°
2026-04-30 12:59 38.17014 41.21311 3126 ft 173 kts 171°
2026-04-30 12:59 38.15836 41.21584 3128 ft 172 kts 170°
2026-04-30 12:59 38.14655 41.21855 3104 ft 171 kts 171°
2026-04-30 13:00 38.13474 41.22036 3098 ft 170 kts 179°
2026-04-30 13:00 38.12299 41.21944 3095 ft 170 kts 195°
2026-04-30 13:00 38.11167 41.21572 3100 ft 167 kts 195°
2026-04-30 13:00 38.10033 41.21230 3106 ft 169 kts 194°
2026-04-30 13:01 38.08911 41.20866 3092 ft 163 kts 199°
2026-04-30 13:01 38.07861 41.20358 3102 ft 163 kts 205°
2026-04-30 13:01 38.06825 41.19772 3102 ft 161 kts 205°
2026-04-30 13:01 38.05797 41.19179 3101 ft 163 kts 209°
2026-04-30 13:02 38.04725 41.18630 3068 ft 165 kts 199°
2026-04-30 13:02 38.03681 41.18085 3069 ft 161 kts 207°
2026-04-30 13:02 38.02663 41.17458 3093 ft 164 kts 207°
2026-04-30 13:02 38.01653 41.16833 3090 ft 160 kts 207°
2026-04-30 13:03 38.00674 41.16231 3073 ft 159 kts 206°
2026-04-30 13:03 37.99651 41.15630 2985 ft 164 kts 209°
2026-04-30 13:03 37.98643 41.14946 2753 ft 165 kts 207°
2026-04-30 13:03 37.97573 41.14406 2494 ft 165 kts 200°
2026-04-30 13:04 37.96520 41.13861 2342 ft 163 kts 205°
2026-04-30 13:04 37.95488 41.13234 2168 ft 165 kts 205°
2026-04-30 13:04 37.94451 41.12603 1993 ft 167 kts 207°
2026-04-30 13:04 37.93412 41.11956 1838 ft 163 kts 206°
2026-04-30 13:05 37.92671 41.11525 1824 ft 41 kts 205°
2026-04-30 13:05 37.92528 41.11439 1824 ft 20 kts 206°
2026-04-30 13:05 37.92423 41.11379 1823 ft 12 kts 197°
2026-04-30 13:06 37.92323 41.11485 1823 ft 8 kts 119°
2026-04-30 13:06 37.92299 41.11544 1823 ft 7 kts 117°
2026-04-30 13:06 37.92276 41.11600 1823 ft 7 kts 117°
2026-04-30 13:06 37.92270 41.11614 1823 ft 0 kts 117°